Time,TemperatureF,DewpointF,PressureIn,WindDirection,WindDirectionDegrees,WindSpeedMPH,WindSpeedGustMPH,Humidity,HourlyPrecipIn,Conditions,Clouds,dailyrainin,SoftwareType,DateUTC
2013-01-15 00:08:00,-3.1,-8.0,30.71,SW,217,4.0,-999.0,80,-99.99,,,0.00,weatherlink.com 1.10,2013-01-15 07:08:00,
2013-01-15 00:23:00,0.5,-4.0,30.71,SW,215,2.0,-999.0,80,-99.99,,,0.00,weatherlink.com 1.10,2013-01-15 07:23:00,
2013-01-15 00:38:00,1.9,-3.0,30.71,SW,214,3.0,-999.0,79,-99.99,,,0.00,weatherlink.com 1.10,2013-01-15 07:38:00,
2013-01-15 00:53:00,-0.7,-7.0,30.71,SW,215,3.0,-999.0,76,-99.99,,,0.00,weatherlink.com 1.10,2013-01-15 07:53:00,
2013-01-15 01:08:00,-2.9,-8.0,30.72,SW,216,0.0,-999.0,78,-99.99,,,0.00,weatherlink.com 1.10,2013-01-15 08:08:00,
2013-01-15 01:23:00,-3.2,-8.0,30.72,SW,216,0.0,-999.0,79,-99.99,,,0.00,weatherlink.com 1.10,2013-01-15 08:23:00,
2013-01-15 01:38:00,-2.8,-8.0,30.73,SW,216,0.0,-999.0,80,-99.99,,,0.00,weatherlink.com 1.10,2013-01-15 08:38:00,
2013-01-15 01:53:00,-1.9,-7.0,30.72,SW,216,0.0,-999.0,80,-99.99,,,0.00,weatherlink.com 1.10,2013-01-15 08:53:00,
2013-01-15 02:08:00,-0.8,-5.0,30.72,SW,216,0.0,-999.0,81,-99.99,,,0.00,weatherlink.com 1.10,2013-01-15 09:08:00,
2013-01-15 02:23:00,-0.2,-5.0,30.73,SW,216,0.0,-999.0,80,-99.99,,,0.00,weatherlink.com 1.10,2013-01-15 09:23:00,
2013-01-15 02:38:00,0.0,-5.0,30.74,SW,216,0.0,-999.0,80,-99.99,,,0.00,weatherlink.com 1.10,2013-01-15 09:38:00,
2013-01-15 02:53:00,0.1,-5.0,30.74,SW,216,0.0,-999.0,80,-99.99,,,0.00,weatherlink.com 1.10,2013-01-15 09:53:00,
2013-01-15 03:08:00,-0.3,-5.0,30.73,SW,216,0.0,-999.0,79,-99.99,,,0.00,weatherlink.com 1.10,2013-01-15 10:08:00,
2013-01-15 03:23:00,-0.9,-6.0,30.75,SW,219,1.0,-999.0,80,-99.99,,,0.00,weatherlink.com 1.10,2013-01-15 10:23:00,
2013-01-15 03:38:00,-0.4,-5.0,30.76,SW,220,0.0,-999.0,80,-99.99,,,0.00,weatherlink.com 1.10,2013-01-15 10:38:00,
2013-01-15 03:53:00,0.0,-5.0,30.77,SW,220,0.0,-999.0,81,-99.99,,,0.00,weatherlink.com 1.10,2013-01-15 10:53:00,
2013-01-15 04:08:00,0.5,-4.0,30.76,SW,220,0.0,-999.0,81,-99.99,,,0.00,weatherlink.com 1.10,2013-01-15 11:08:00,
2013-01-15 04:23:00,0.8,-4.0,30.76,SW,219,0.0,-999.0,81,-99.99,,,0.00,weatherlink.com 1.10,2013-01-15 11:23:00,
2013-01-15 04:38:00,1.1,-3.0,30.75,SW,219,0.0,-999.0,81,-99.99,,,0.00,weatherlink.com 1.10,2013-01-15 11:38:00,
2013-01-15 04:53:00,0.7,-4.0,30.77,SW,220,1.0,-999.0,80,-99.99,,,0.00,weatherlink.com 1.10,2013-01-15 11:53:00,
2013-01-15 05:08:00,0.1,-5.0,30.76,SW,220,0.0,-999.0,80,-99.99,,,0.00,weatherlink.com 1.10,2013-01-15 12:08:00,
2013-01-15 05:23:00,0.0,-5.0,30.75,SW,220,0.0,-999.0,80,-99.99,,,0.00,weatherlink.com 1.10,2013-01-15 12:23:00,
2013-01-15 05:38:00,-0.1,-5.0,30.74,SW,219,2.0,-999.0,80,-99.99,,,0.00,weatherlink.com 1.10,2013-01-15 12:38:00,
2013-01-15 05:53:00,-0.4,-5.0,30.73,SW,219,2.0,-999.0,80,-99.99,,,0.00,weatherlink.com 1.10,2013-01-15 12:53:00,
2013-01-15 06:08:00,-0.5,-5.0,30.74,SW,220,0.0,-999.0,80,-99.99,,,0.00,weatherlink.com 1.10,2013-01-15 13:08:00,
2013-01-15 06:23:00,-0.3,-5.0,30.77,SW,220,0.0,-999.0,81,-99.99,,,0.00,weatherlink.com 1.10,2013-01-15 13:23:00,
2013-01-15 06:38:00,-0.1,-5.0,30.77,SW,220,0.0,-999.0,81,-99.99,,,0.00,weatherlink.com 1.10,2013-01-15 13:38:00,
2013-01-15 06:53:00,0.6,-4.0,30.78,SW,220,2.0,-999.0,81,-99.99,,,0.00,weatherlink.com 1.10,2013-01-15 13:53:00,
2013-01-15 07:08:00,1.3,-3.0,30.79,SW,220,1.0,-999.0,81,-99.99,,,0.00,weatherlink.com 1.10,2013-01-15 14:08:00,
2013-01-15 07:23:00,1.8,-3.0,30.77,SW,219,0.0,-999.0,81,-99.99,,,0.00,weatherlink.com 1.10,2013-01-15 14:23:00,
2013-01-15 07:38:00,2.2,-2.0,30.77,SW,220,0.0,-999.0,81,-99.99,,,0.00,weatherlink.com 1.10,2013-01-15 14:38:00,
2013-01-15 07:53:00,2.3,-2.0,30.76,SW,220,1.0,-999.0,81,-99.99,,,0.00,weatherlink.com 1.10,2013-01-15 14:53:00,
2013-01-15 08:08:00,1.5,-3.0,30.77,SW,219,2.0,-999.0,80,-99.99,,,0.00,weatherlink.com 1.10,2013-01-15 15:08:00,
2013-01-15 08:23:00,1.5,-3.0,30.77,SW,220,0.0,-999.0,81,-99.99,,,0.00,weatherlink.com 1.10,2013-01-15 15:23:00,
2013-01-15 08:38:00,2.1,-2.0,30.76,SW,219,1.0,-999.0,81,-99.99,,,0.00,weatherlink.com 1.10,2013-01-15 15:38:00,
2013-01-15 08:53:00,3.0,-2.0,30.77,SW,219,1.0,-999.0,81,-99.99,,,0.00,weatherlink.com 1.10,2013-01-15 15:53:00,
2013-01-15 09:08:00,3.0,-2.0,30.80,WSW,238,6.0,-999.0,80,-99.99,,,0.00,weatherlink.com 1.10,2013-01-15 16:08:00,
2013-01-15 09:23:00,2.9,-2.0,30.78,WSW,258,0.0,-999.0,81,-99.99,,,0.00,weatherlink.com 1.10,2013-01-15 16:23:00,
2013-01-15 09:38:00,3.5,-1.0,30.79,WSW,258,2.0,-999.0,80,-99.99,,,0.00,weatherlink.com 1.10,2013-01-15 16:38:00,
2013-01-15 09:53:00,3.7,-1.0,30.79,WSW,258,1.0,-999.0,79,-99.99,,,0.00,weatherlink.com 1.10,2013-01-15 16:53:00,
2013-01-15 10:08:00,4.2,-1.0,30.78,WSW,258,1.0,-999.0,79,-99.99,,,0.00,weatherlink.com 1.10,2013-01-15 17:08:00,
2013-01-15 10:23:00,4.7,0.0,30.78,WSW,258,0.0,-999.0,80,-99.99,,,0.00,weatherlink.com 1.10,2013-01-15 17:23:00,
2013-01-15 10:38:00,5.4,0.0,30.80,WSW,258,1.0,-999.0,79,-99.99,,,0.00,weatherlink.com 1.10,2013-01-15 17:38:00,
2013-01-15 10:53:00,5.7,1.0,30.80,WSW,258,0.0,-999.0,79,-99.99,,,0.00,weatherlink.com 1.10,2013-01-15 17:53:00,
2013-01-15 11:08:00,6.0,1.0,30.79,WSW,258,2.0,-999.0,79,-99.99,,,0.00,weatherlink.com 1.10,2013-01-15 18:08:00,
2013-01-15 11:23:00,5.2,0.0,30.78,WSW,258,1.0,-999.0,78,-99.99,,,0.00,weatherlink.com 1.10,2013-01-15 18:23:00,
2013-01-15 11:38:00,5.5,0.0,30.78,WSW,258,0.0,-999.0,79,-99.99,,,0.00,weatherlink.com 1.10,2013-01-15 18:38:00,
2013-01-15 11:53:00,6.7,2.0,30.77,WSW,258,0.0,-999.0,79,-99.99,,,0.00,weatherlink.com 1.10,2013-01-15 18:53:00,
2013-01-15 12:08:00,7.8,3.0,30.76,WSW,258,0.0,-999.0,79,-99.99,,,0.00,weatherlink.com 1.10,2013-01-15 19:08:00,
2013-01-15 12:23:00,7.0,1.0,30.77,WSW,258,0.0,-999.0,77,-99.99,,,0.00,weatherlink.com 1.10,2013-01-15 19:23:00,
2013-01-15 12:39:00,6.7,1.0,30.77,WSW,258,0.0,-999.0,78,-99.99,,,0.00,weatherlink.com 1.10,2013-01-15 19:39:00,
2013-01-15 12:54:00,7.0,2.0,30.76,WSW,258,1.0,-999.0,79,-99.99,,,0.00,weatherlink.com 1.10,2013-01-15 19:54:00,
2013-01-15 13:09:00,7.2,2.0,30.75,WSW,258,0.0,-999.0,79,-99.99,,,0.00,weatherlink.com 1.10,2013-01-15 20:09:00,
2013-01-15 13:25:00,7.8,3.0,30.75,WSW,258,0.0,-999.0,79,-99.99,,,0.00,weatherlink.com 1.10,2013-01-15 20:25:00,
2013-01-15 13:39:00,9.0,3.0,30.76,WSW,258,0.0,-999.0,78,-99.99,,,0.00,weatherlink.com 1.10,2013-01-15 20:39:00,
2013-01-15 13:54:00,9.9,4.0,30.75,WSW,258,0.0,-999.0,78,-99.99,,,0.00,weatherlink.com 1.10,2013-01-15 20:54:00,
2013-01-15 14:09:00,9.9,4.0,30.76,WSW,258,1.0,-999.0,77,-99.99,,,0.00,weatherlink.com 1.10,2013-01-15 21:09:00,
2013-01-15 14:24:00,9.5,4.0,30.76,WSW,258,0.0,-999.0,79,-99.99,,,0.00,weatherlink.com 1.10,2013-01-15 21:24:00,
2013-01-15 14:39:00,9.3,4.0,30.77,WSW,258,1.0,-999.0,78,-99.99,,,0.00,weatherlink.com 1.10,2013-01-15 21:39:00,
2013-01-15 14:54:00,8.9,4.0,30.78,WSW,258,0.0,-999.0,79,-99.99,,,0.00,weatherlink.com 1.10,2013-01-15 21:54:00,
2013-01-15 15:09:00,8.4,3.0,30.77,WSW,258,3.0,-999.0,78,-99.99,,,0.00,weatherlink.com 1.10,2013-01-15 22:09:00,
2013-01-15 15:24:00,8.1,3.0,30.77,West,265,0.0,-999.0,79,-99.99,,,0.00,weatherlink.com 1.10,2013-01-15 22:24:00,
2013-01-15 15:38:00,8.0,3.0,30.77,West,265,2.0,-999.0,79,-99.99,,,0.00,weatherlink.com 1.10,2013-01-15 22:38:00,
2013-01-15 15:54:00,7.7,3.0,30.77,West,265,2.0,-999.0,79,-99.99,,,0.00,weatherlink.com 1.10,2013-01-15 22:54:00,
2013-01-15 16:08:00,7.6,3.0,30.77,West,265,0.0,-999.0,80,-99.99,,,0.00,weatherlink.com 1.10,2013-01-15 23:08:00,
2013-01-15 16:23:00,7.8,3.0,30.77,West,265,0.0,-999.0,80,-99.99,,,0.00,weatherlink.com 1.10,2013-01-15 23:23:00,
2013-01-15 16:38:00,7.8,3.0,30.78,West,265,0.0,-999.0,80,-99.99,,,0.00,weatherlink.com 1.10,2013-01-15 23:38:00,
2013-01-15 16:54:00,7.8,3.0,30.78,West,265,0.0,-999.0,80,-99.99,,,0.00,weatherlink.com 1.10,2013-01-15 23:54:00,
2013-01-15 17:08:00,7.8,3.0,30.79,West,265,0.0,-999.0,80,-99.99,,,0.00,weatherlink.com 1.10,2013-01-16 00:08:00,
2013-01-15 17:23:00,7.6,3.0,30.78,West,265,0.0,-999.0,80,-99.99,,,0.00,weatherlink.com 1.10,2013-01-16 00:23:00,
2013-01-15 17:38:00,7.6,3.0,30.78,West,265,0.0,-999.0,80,-99.99,,,0.00,weatherlink.com 1.10,2013-01-16 00:38:00,
2013-01-15 17:54:00,7.5,3.0,30.79,West,265,0.0,-999.0,81,-99.99,,,0.00,weatherlink.com 1.10,2013-01-16 00:54:00,
2013-01-15 18:08:00,7.5,3.0,30.78,West,265,0.0,-999.0,82,-99.99,,,0.00,weatherlink.com 1.10,2013-01-16 01:08:00,
2013-01-15 18:23:00,7.5,3.0,30.79,West,265,0.0,-999.0,82,-99.99,,,0.00,weatherlink.com 1.10,2013-01-16 01:23:00,
2013-01-15 18:38:00,7.5,3.0,30.79,West,265,0.0,-999.0,82,-99.99,,,0.00,weatherlink.com 1.10,2013-01-16 01:38:00,
2013-01-15 18:54:00,7.5,3.0,30.80,West,265,0.0,-999.0,82,-99.99,,,0.00,weatherlink.com 1.10,2013-01-16 01:54:00,
2013-01-15 19:08:00,7.4,3.0,30.79,West,265,0.0,-999.0,82,-99.99,,,0.00,weatherlink.com 1.10,2013-01-16 02:08:00,
2013-01-15 19:24:00,7.3,3.0,30.79,West,265,0.0,-999.0,82,-99.99,,,0.00,weatherlink.com 1.10,2013-01-16 02:24:00,
2013-01-15 19:39:00,7.2,3.0,30.79,West,265,0.0,-999.0,82,-99.99,,,0.00,weatherlink.com 1.10,2013-01-16 02:39:00,
2013-01-15 19:54:00,7.3,3.0,30.79,West,265,1.0,-999.0,83,-99.99,,,0.00,weatherlink.com 1.10,2013-01-16 02:54:00,
2013-01-15 20:08:00,7.2,3.0,30.80,West,265,0.0,-999.0,83,-99.99,,,0.00,weatherlink.com 1.10,2013-01-16 03:08:00,
2013-01-15 20:24:00,7.2,3.0,30.79,West,265,0.0,-999.0,83,-99.99,,,0.00,weatherlink.com 1.10,2013-01-16 03:24:00,
2013-01-15 20:38:00,7.2,3.0,30.79,West,265,0.0,-999.0,83,-99.99,,,0.00,weatherlink.com 1.10,2013-01-16 03:38:00,
2013-01-15 20:53:00,7.1,3.0,30.79,West,265,0.0,-999.0,83,-99.99,,,0.00,weatherlink.com 1.10,2013-01-16 03:53:00,
2013-01-15 21:09:00,7.2,3.0,30.79,West,265,0.0,-999.0,83,-99.99,,,0.00,weatherlink.com 1.10,2013-01-16 04:09:00,
2013-01-15 21:24:00,7.3,3.0,30.79,West,265,0.0,-999.0,83,-99.99,,,0.00,weatherlink.com 1.10,2013-01-16 04:24:00,
2013-01-15 21:38:00,7.3,3.0,30.78,West,265,0.0,-999.0,83,-99.99,,,0.00,weatherlink.com 1.10,2013-01-16 04:38:00,
2013-01-15 21:53:00,7.4,3.0,30.78,West,265,0.0,-999.0,83,-99.99,,,0.00,weatherlink.com 1.10,2013-01-16 04:53:00,
2013-01-15 22:08:00,7.4,3.0,30.78,West,265,0.0,-999.0,83,-99.99,,,0.00,weatherlink.com 1.10,2013-01-16 05:08:00,
2013-01-15 22:23:00,7.5,3.0,30.79,West,265,0.0,-999.0,83,-99.99,,,0.00,weatherlink.com 1.10,2013-01-16 05:23:00,
2013-01-15 22:38:00,7.5,3.0,30.79,West,265,0.0,-999.0,83,-99.99,,,0.00,weatherlink.com 1.10,2013-01-16 05:38:00,
2013-01-15 22:53:00,7.5,3.0,30.78,West,265,0.0,-999.0,83,-99.99,,,0.00,weatherlink.com 1.10,2013-01-16 05:53:00,
2013-01-15 23:08:00,7.5,3.0,30.79,West,265,0.0,-999.0,83,-99.99,,,0.00,weatherlink.com 1.10,2013-01-16 06:08:00,
2013-01-15 23:23:00,7.5,3.0,30.79,West,265,0.0,-999.0,83,-99.99,,,0.00,weatherlink.com 1.10,2013-01-16 06:23:00,
2013-01-15 23:38:00,7.6,4.0,30.80,West,265,1.0,-999.0,83,-99.99,,,0.00,weatherlink.com 1.10,2013-01-16 06:38:00,
2013-01-15 23:53:00,7.7,4.0,30.80,West,265,1.0,-999.0,83,-99.99,,,0.00,weatherlink.com 1.10,2013-01-16 06:53:00,